When you browse on this site, cookies collect data to enhance your experience and personalize the content and advertising you see.
Visit our Privacy Policy to learn more. By continuing to use the site, you agree to this use of cookies and data.
  • In Austria
  • List of Countries
  • For 7 days
  • Water Temperature
  • Satellite Maps
  • Weather Map
  • News
  • Weather Widgets
  • user-avatar
    Login

    Hourly Weather Nuwejba

    Today, 18 January, Friday

    Time Temperature Precipitation Wind Pressure Humidity
    00:00 +6°C° 0 mm 2 mps 695 mmHg 76%
    01:00 +5°C° 0 mm 2 mps 694 mmHg 76%
    02:00 +4°C° 0 mm 3 mps 694 mmHg 78%
    03:00 +5°C° 0 mm 2 mps 694 mmHg 79%
    04:00 +4°C° 0 mm 2 mps 694 mmHg 79%
    05:00 +4°C° 0 mm 2 mps 694 mmHg 80%
    06:00 +5°C° 0 mm 2 mps 694 mmHg 77%
    07:00 +6°C° 0 mm 2 mps 694 mmHg 75%
    08:00 +7°C° 0 mm 2 mps 695 mmHg 70%
    09:00 +8°C° 0 mm 2 mps 695 mmHg 64%
    10:00 +10°C° 0 mm 2 mps 695 mmHg 57%
    11:00 +12°C° 0 mm 2 mps 695 mmHg 50%
    12:00 +12°C° 0 mm 3 mps 695 mmHg 46%
    13:00 +13°C° 0 mm 3 mps 695 mmHg 42%
    14:00 +14°C° 0 mm 3 mps 694 mmHg 37%
    15:00 +13°C° 0 mm 3 mps 694 mmHg 41%
    16:00 +13°C° 0 mm 3 mps 694 mmHg 44%
    17:00 +12°C° 0 mm 3 mps 694 mmHg 47%
    18:00 +11°C° 0 mm 3 mps 694 mmHg 52%
    19:00 +10°C° 0 mm 3 mps 694 mmHg 58%
    20:00 +9°C° 0 mm 2 mps 694 mmHg 63%
    21:00 +8°C° 0 mm 2 mps 694 mmHg 66%
    22:00 +8°C° 0 mm 2 mps 694 mmHg 69%
    23:00 +7°C° 0 mm 2 mps 694 mmHg 72%

    Tomorrow, 19 January, Saturday

    Time Temperature Precipitation Wind Pressure Humidity
    00:00 +7°C° 0 mm 2 mps 694 mmHg 74%
    01:00 +7°C° 0 mm 2 mps 694 mmHg 75%
    02:00 +6°C° 0 mm 2 mps 694 mmHg 77%
    03:00 +6°C° 0 mm 2 mps 693 mmHg 77%
    04:00 +6°C° 0 mm 2 mps 693 mmHg 77%
    05:00 +6°C° 0 mm 2 mps 693 mmHg 77%
    06:00 +7°C° 0 mm 2 mps 693 mmHg 72%
    07:00 +7°C° 0 mm 2 mps 694 mmHg 66%
    08:00 +8°C° 0 mm 2 mps 694 mmHg 61%
    09:00 +10°C° 0 mm 2 mps 694 mmHg 52%
    10:00 +13°C° 0 mm 2 mps 694 mmHg 43%
    11:00 +14°C° 0 mm 2 mps 694 mmHg 34%
    12:00 +15°C° 0 mm 2 mps 694 mmHg 31%
    13:00 +16°C° 0 mm 2 mps 694 mmHg 27%
    14:00 +17°C° 0 mm 2 mps 693 mmHg 24%
    15:00 +16°C° 0 mm 2 mps 693 mmHg 25%
    16:00 +15°C° 0 mm 1 mps 693 mmHg 26%
    17:00 +15°C° 0 mm 1 mps 693 mmHg 27%
    18:00 +14°C° 0 mm 1 mps 693 mmHg 29%
    19:00 +13°C° 0 mm 1 mps 694 mmHg 30%
    20:00 +12°C° 0 mm 1 mps 694 mmHg 32%
    21:00 +11°C° 0 mm 1 mps 694 mmHg 33%
    22:00 +11°C° 0 mm 1 mps 694 mmHg 34%
    23:00 +10°C° 0 mm 1 mps 694 mmHg 36%

    Day after tomorrow, 20 January, Sunday

    Time Temperature Precipitation Wind Pressure Humidity
    00:00 +10°C° 0 mm 1 mps 693 mmHg 36%
    01:00 +10°C° 0 mm 1 mps 693 mmHg 35%
    02:00 +9°C° 0 mm 1 mps 693 mmHg 35%
    03:00 +9°C° 0 mm 1 mps 693 mmHg 35%
    04:00 +9°C° 0 mm 1 mps 693 mmHg 34%
    05:00 +9°C° 0 mm 1 mps 692 mmHg 34%
    06:00 +10°C° 0 mm 1 mps 693 mmHg 31%
    07:00 +10°C° 0 mm 1 mps 693 mmHg 29%
    08:00 +11°C° 0 mm 1 mps 694 mmHg 27%
    09:00 +13°C° 0 mm 1 mps 694 mmHg 24%
    10:00 +15°C° 0 mm 1 mps 695 mmHg 21%
    11:00 +18°C° 0 mm 1 mps 695 mmHg 17%
    12:00 +19°C° 0 mm 1 mps 694 mmHg 16%
    13:00 +20°C° 0 mm 1 mps 694 mmHg 15%
    14:00 +21°C° 0 mm 1 mps 693 mmHg 13%
    15:00 +20°C° 0 mm 1 mps 693 mmHg 14%
    16:00 +19°C° 0 mm 1 mps 693 mmHg 16%
    17:00 +18°C° 0 mm 1 mps 693 mmHg 17%
    18:00 +16°C° 0 mm 1 mps 693 mmHg 19%
    19:00 +15°C° 0 mm 1 mps 693 mmHg 21%
    20:00 +13°C° 0 mm 0 mps 693 mmHg 22%
    21:00 +14°C° 0 mm 1 mps 693 mmHg 22%
    22:00 +14°C° 0 mm 1 mps 693 mmHg 22%
    23:00 +14°C° 0 mm 1 mps 693 mmHg 22%

    21 January, Monday

    Time Temperature Precipitation Wind Pressure Humidity
    00:00 +14°C° 0 mm 1 mps 693 mmHg 22%
    01:00 +14°C° 0 mm 1 mps 693 mmHg 21%
    02:00 +14°C° 0 mm 1 mps 692 mmHg 21%
    03:00 +13°C° 0 mm 1 mps 692 mmHg 22%
    04:00 +12°C° 0 mm 1 mps 692 mmHg 24%
    05:00 +10°C° 0 mm 0 mps 691 mmHg 25%
    06:00 +12°C° 0 mm 1 mps 692 mmHg 23%
    07:00 +14°C° 0 mm 1 mps 692 mmHg 21%
    08:00 +15°C° 0 mm 1 mps 693 mmHg 19%
    09:00 +16°C° 0 mm 1 mps 693 mmHg 16%
    10:00 +19°C° 0 mm 1 mps 693 mmHg 14%
    11:00 +21°C° 0 mm 1 mps 694 mmHg 11%
    12:00 +20°C° 0 mm 2 mps 693 mmHg 12%
    13:00 +21°C° 0 mm 2 mps 693 mmHg 12%
    14:00 +23°C° 0 mm 2 mps 693 mmHg 13%
    15:00 +20°C° 0 mm 2 mps 692 mmHg 14%
    16:00 +19°C° 0 mm 2 mps 692 mmHg 16%
    17:00 +18°C° 0 mm 2 mps 692 mmHg 18%
    18:00 +17°C° 0 mm 2 mps 693 mmHg 20%
    19:00 +16°C° 0 mm 2 mps 693 mmHg 22%
    20:00 +15°C° 0 mm 2 mps 693 mmHg 24%
    21:00 +14°C° 0 mm 2 mps 693 mmHg 25%
    22:00 +14°C° 0 mm 2 mps 693 mmHg 27%
    23:00 +13°C° 0 mm 2 mps 693 mmHg 28%

    22 January, Tuesday

    Time Temperature Precipitation Wind Pressure Humidity
    00:00 +13°C° 0 mm 2 mps 693 mmHg 29%
    01:00 +12°C° 0 mm 1 mps 692 mmHg 30%
    02:00 +12°C° 0 mm 1 mps 692 mmHg 31%
    03:00 +11°C° 0 mm 1 mps 692 mmHg 33%
    04:00 +11°C° 0 mm 1 mps 691 mmHg 34%
    05:00 +10°C° 0 mm 1 mps 691 mmHg 36%
    06:00 +11°C° 0 mm 1 mps 692 mmHg 34%
    07:00 +12°C° 0 mm 1 mps 692 mmHg 33%
    08:00 +13°C° 0 mm 1 mps 693 mmHg 32%
    09:00 +15°C° 0 mm 1 mps 693 mmHg 29%
    10:00 +16°C° 0 mm 1 mps 693 mmHg 25%
    11:00 +19°C° 0 mm 1 mps 693 mmHg 22%
    12:00 +19°C° 0 mm 2 mps 693 mmHg 21%
    13:00 +19°C° 0 mm 2 mps 692 mmHg 19%
    14:00 +20°C° 0 mm 2 mps 692 mmHg 18%
    15:00 +19°C° 0 mm 2 mps 692 mmHg 19%
    16:00 +18°C° 0 mm 2 mps 692 mmHg 20%
    17:00 +18°C° 0 mm 2 mps 692 mmHg 22%
    18:00 +17°C° 0 mm 2 mps 692 mmHg 25%
    19:00 +15°C° 0 mm 2 mps 692 mmHg 28%
    20:00 +14°C° 0 mm 1 mps 692 mmHg 30%
    21:00 +14°C° 0 mm 1 mps 692 mmHg 32%
    22:00 +13°C° 0 mm 1 mps 691 mmHg 33%
    23:00 +12°C° 0 mm 1 mps 691 mmHg 35%

    23 January, Wednesday

    Time Temperature Precipitation Wind Pressure Humidity
    00:00 +12°C° 0 mm 1 mps 691 mmHg 35%
    01:00 +12°C° 0 mm 1 mps 691 mmHg 36%
    02:00 +11°C° 0 mm 1 mps 690 mmHg 36%
    03:00 +11°C° 0 mm 1 mps 690 mmHg 36%
    04:00 +11°C° 0 mm 1 mps 690 mmHg 36%
    05:00 +10°C° 0 mm 1 mps 690 mmHg 35%
    06:00 +11°C° 0 mm 1 mps 691 mmHg 33%
    07:00 +12°C° 0 mm 1 mps 691 mmHg 30%
    08:00 +13°C° 0 mm 1 mps 692 mmHg 28%
    09:00 +15°C° 0 mm 1 mps 692 mmHg 25%
    10:00 +16°C° 0 mm 1 mps 692 mmHg 22%
    11:00 +19°C° 0 mm 1 mps 692 mmHg 18%
    12:00 +20°C° 0 mm 1 mps 692 mmHg 17%
    13:00 +20°C° 0 mm 1 mps 691 mmHg 16%
    14:00 +21°C° 0 mm 1 mps 691 mmHg 14%
    15:00 +20°C° 0 mm 1 mps 691 mmHg 16%
    16:00 +20°C° 0 mm 1 mps 691 mmHg 17%
    17:00 +19°C° 0 mm 1 mps 691 mmHg 18%
    18:00 +18°C° 0 mm 1 mps 691 mmHg 21%
    19:00 +16°C° 0 mm 1 mps 691 mmHg 24%
    20:00 +15°C° 0 mm 1 mps 691 mmHg 27%
    21:00 +14°C° 0 mm 1 mps 690 mmHg 28%
    22:00 +14°C° 0 mm 1 mps 690 mmHg 30%
    23:00 +14°C° 0 mm 1 mps 690 mmHg 31%
    Show more